CLX604 ELLX-HKJK

Flight info

Callsign CLX604
Flight time N/A
Altitude 39000
Route GTQ3P GTQ DCT DEVDI DCT RIPUS DCT RESIA DCT ERITU/N0491F410 DCT LATAN DCT SALUN N705 BOPIX N710 TAKRI P751 LXR M999 MUVOL/N0501F430 DCT RASKA DCT DULAB DCT ULONI DCT IMDAX DCT ASM DCT KONET/M086F430 UM308 RUDOL/N0497F430 DCT LOTAS LOTAS2P
Aircraft B744/H-SDE2E3FGHIJ4J5M1RWXYZ/LB1B2D1

Departure

Time 2026-04-28 21:36
Airport Luxembourg-Findel International Airport (ELLX)

Arrival

Time N/A
Airport Jomo Kenyatta International Airport (HKJK)
Time Latitude Longitude Altitude Speed Heading
2026-04-28 20:07 49.63663 6.22578 1248 ft 0 kts 240°
2026-04-28 21:18 49.63669 6.22596 1247 ft 2 kts 240°
2026-04-28 21:18 49.63678 6.22618 1247 ft 2 kts 240°
2026-04-28 21:18 49.63686 6.22640 1247 ft 2 kts 239°
2026-04-28 21:19 49.63695 6.22659 1247 ft 2 kts 219°
2026-04-28 21:19 49.63710 6.22671 1247 ft 2 kts 193°
2026-04-28 21:19 49.63726 6.22672 1247 ft 2 kts 166°
2026-04-28 21:19 49.63731 6.22669 1247 ft 0 kts 161°
2026-04-28 21:27 49.63726 6.22672 1247 ft 5 kts 161°
2026-04-28 21:28 49.63686 6.22703 1247 ft 11 kts 150°
2026-04-28 21:28 49.63619 6.22764 1247 ft 11 kts 150°
2026-04-28 21:28 49.63555 6.22821 1247 ft 10 kts 150°
2026-04-28 21:28 49.63489 6.22847 1247 ft 10 kts 205°
2026-04-28 21:29 49.63440 6.22757 1247 ft 12 kts 239°
2026-04-28 21:29 49.63386 6.22612 1247 ft 20 kts 240°
2026-04-28 21:29 49.63311 6.22402 1247 ft 22 kts 244°
2026-04-28 21:29 49.63246 6.22190 1247 ft 21 kts 244°
2026-04-28 21:30 49.63183 6.21988 1247 ft 20 kts 244°
2026-04-28 21:30 49.63124 6.21795 1247 ft 20 kts 244°
2026-04-28 21:30 49.63066 6.21610 1247 ft 19 kts 244°
2026-04-28 21:30 49.63011 6.21436 1247 ft 18 kts 244°
2026-04-28 21:31 49.62960 6.21269 1247 ft 17 kts 244°
2026-04-28 21:31 49.62911 6.21112 1247 ft 16 kts 244°
2026-04-28 21:31 49.62864 6.20961 1247 ft 16 kts 244°
2026-04-28 21:31 49.62807 6.20782 1247 ft 19 kts 237°
2026-04-28 21:32 49.62716 6.20645 1247 ft 18 kts 218°
2026-04-28 21:32 49.62627 6.20517 1247 ft 17 kts 228°
2026-04-28 21:32 49.62550 6.20383 1247 ft 16 kts 229°
2026-04-28 21:32 49.62485 6.20249 1247 ft 15 kts 238°
2026-04-28 21:33 49.62429 6.20099 1247 ft 19 kts 240°
2026-04-28 21:33 49.62347 6.19881 1247 ft 27 kts 240°
2026-04-28 21:33 49.62249 6.19618 1247 ft 27 kts 240°
2026-04-28 21:33 49.62160 6.19378 1247 ft 24 kts 240°
2026-04-28 21:34 49.62079 6.19162 1247 ft 23 kts 240°
2026-04-28 21:34 49.62004 6.18958 1247 ft 22 kts 240°
2026-04-28 21:34 49.61941 6.18812 1247 ft 13 kts 224°
2026-04-28 21:34 49.61880 6.18735 1247 ft 9 kts 218°
2026-04-28 21:35 49.61820 6.18714 1247 ft 9 kts 159°
2026-04-28 21:35 49.61772 6.18755 1247 ft 5 kts 149°
2026-04-28 21:35 49.61767 6.18801 1247 ft 5 kts 62°
2026-04-28 21:35 49.61833 6.18976 1247 ft 41 kts 60°
2026-04-28 21:36 49.62086 6.19655 1248 ft 104 kts 60°
2026-04-28 21:36 49.62538 6.20871 1252 ft 154 kts 59°
2026-04-28 21:36 49.63085 6.22353 1681 ft 161 kts 59°
2026-04-28 21:36 49.63643 6.23851 2352 ft 162 kts 59°
2026-04-28 21:37 49.64183 6.25360 3077 ft 158 kts 65°
2026-04-28 21:37 49.64230 6.27018 3708 ft 161 kts 102°
2026-04-28 21:37 49.63656 6.28505 4358 ft 162 kts 118°
2026-04-28 21:37 49.62863 6.29819 4842 ft 175 kts 129°
2026-04-28 21:38 49.61917 6.31196 5105 ft 197 kts 131°
2026-04-28 21:38 49.60835 6.32723 5266 ft 225 kts 134°
2026-04-28 21:38 49.59607 6.34435 5441 ft 252 kts 134°
2026-04-28 21:38 49.58265 6.36305 6030 ft 263 kts 135°
2026-04-28 21:39 49.56925 6.38171 7125 ft 259 kts 135°
2026-04-28 21:39 49.55492 6.39863 8049 ft 264 kts 144°
2026-04-28 21:39 49.53859 6.41237 8834 ft 271 kts 151°
2026-04-28 21:39 49.52124 6.42452 9643 ft 277 kts 154°
2026-04-28 21:40 49.50343 6.43627 10453 ft 281 kts 155°
2026-04-28 21:40 49.48526 6.44788 11204 ft 287 kts 156°
2026-04-28 21:40 49.46681 6.46018 11961 ft 292 kts 154°
2026-04-28 21:40 49.44826 6.47320 12701 ft 296 kts 154°
2026-04-28 21:41 49.42947 6.48652 13471 ft 300 kts 154°
2026-04-28 21:41 49.41039 6.49993 14204 ft 304 kts 155°
2026-04-28 21:41 49.39075 6.51353 14936 ft 308 kts 155°
2026-04-28 21:41 49.37104 6.52714 15545 ft 318 kts 155°
2026-04-28 21:42 49.35022 6.54147 15770 ft 340 kts 156°
2026-04-28 21:42 49.32789 6.55683 15931 ft 364 kts 156°
2026-04-28 21:42 49.30406 6.57321 16081 ft 388 kts 156°
2026-04-28 21:42 49.27874 6.59060 16226 ft 411 kts 156°
2026-04-28 21:43 49.25197 6.60896 16380 ft 432 kts 156°
2026-04-28 21:43 49.22371 6.62583 16946 ft 441 kts 161°
2026-04-28 21:43 49.19408 6.63927 17551 ft 448 kts 166°
2026-04-28 21:43 49.16363 6.65061 18188 ft 455 kts 168°
2026-04-28 21:44 49.13267 6.66145 18878 ft 459 kts 168°
2026-04-28 21:44 49.10110 6.67302 19597 ft 463 kts 167°
2026-04-28 21:44 49.06973 6.68478 20277 ft 467 kts 168°
2026-04-28 21:44 49.03806 6.69671 20950 ft 471 kts 168°
2026-04-28 21:45 49.00616 6.70882 21608 ft 475 kts 167°
2026-04-28 21:45 48.97459 6.72449 22231 ft 481 kts 162°
2026-04-28 21:45 48.94351 6.74365 22868 ft 485 kts 159°
2026-04-28 21:45 48.91257 6.76467 23467 ft 489 kts 158°
2026-04-28 21:46 48.88161 6.78641 24034 ft 493 kts 158°
2026-04-28 21:46 48.85032 6.80813 24500 ft 498 kts 159°
2026-04-28 21:46 48.81870 6.82984 24985 ft 501 kts 159°
2026-04-28 21:46 48.78679 6.85159 25460 ft 505 kts 159°
2026-04-28 21:47 48.75467 6.87337 25925 ft 509 kts 159°
2026-04-28 21:47 48.72225 6.89530 26373 ft 512 kts 160°
2026-04-28 21:47 48.68967 6.91727 26812 ft 515 kts 160°
2026-04-28 21:47 48.65701 6.93943 27400 ft 515 kts 160°
2026-04-28 21:48 48.62403 6.96196 27996 ft 515 kts 160°
2026-04-28 21:48 48.59140 6.98410 28582 ft 514 kts 160°
2026-04-28 21:48 48.55886 7.00608 29190 ft 513 kts 161°
2026-04-28 21:48 48.52637 7.02794 29858 ft 511 kts 161°
2026-04-28 21:49 48.49401 7.04967 30515 ft 509 kts 161°
2026-04-28 21:49 48.46165 7.07136 31053 ft 510 kts 161°
2026-04-28 21:49 48.42927 7.09303 31565 ft 510 kts 161°
2026-04-28 21:49 48.39688 7.11463 32129 ft 509 kts 161°
2026-04-28 21:50 48.36454 7.13622 32626 ft 510 kts 162°
2026-04-28 21:50 48.33216 7.15779 33052 ft 511 kts 162°
2026-04-28 21:50 48.29968 7.17940 33513 ft 510 kts 162°
2026-04-28 21:50 48.26724 7.20095 33930 ft 511 kts 162°
2026-04-28 21:51 48.23435 7.22277 34362 ft 511 kts 162°
2026-04-28 21:51 48.20188 7.24428 34744 ft 511 kts 162°
2026-04-28 21:51 48.16934 7.26580 35076 ft 513 kts 161°
2026-04-28 21:51 48.13678 7.28731 35515 ft 511 kts 161°
2026-04-28 21:52 48.10426 7.30876 35846 ft 512 kts 161°
2026-04-28 21:52 48.07163 7.33025 36141 ft 514 kts 161°
2026-04-28 21:52 48.03897 7.35174 36509 ft 513 kts 161°
2026-04-28 21:52 48.00640 7.37338 36829 ft 513 kts 161°
2026-04-28 21:53 47.97383 7.39485 37164 ft 513 kts 161°
2026-04-28 21:53 47.94113 7.41626 37418 ft 514 kts 161°
2026-04-28 21:53 47.90839 7.43763 37618 ft 515 kts 161°
2026-04-28 21:53 47.87559 7.45899 37818 ft 514 kts 161°
2026-04-28 21:54 47.84287 7.48027 38017 ft 514 kts 161°
2026-04-28 21:54 47.80973 7.50181 38203 ft 514 kts 161°
2026-04-28 21:54 47.77706 7.52338 38347 ft 515 kts 157°
2026-04-28 21:54 47.74730 7.55299 38494 ft 520 kts 143°
2026-04-28 21:55 47.72109 7.59020 38654 ft 525 kts 137°
2026-04-28 21:55 47.69683 7.63077 38805 ft 528 kts 132°
2026-04-28 21:55 47.67423 7.67375 38956 ft 529 kts 129°
2026-04-28 21:55 47.65262 7.71797 39048 ft 531 kts 128°
2026-04-28 21:56 47.60949 7.80659 39081 ft 531 kts 128°
2026-04-28 21:56 47.56572 7.89439 39083 ft 530 kts 129°
2026-04-28 21:57 47.52194 7.98198 39084 ft 530 kts 128°
2026-04-28 21:57 47.47816 8.07023 39084 ft 529 kts 128°
2026-04-28 21:58 47.43453 8.15767 39097 ft 529 kts 128°
2026-04-28 21:58 47.39064 8.24475 39100 ft 529 kts 129°
2026-04-28 21:59 47.34654 8.33131 39101 ft 528 kts 129°
2026-04-28 22:00 47.28041 8.46067 39098 ft 527 kts 129°
2026-04-28 22:00 47.23670 8.54709 39100 ft 527 kts 128°
2026-04-28 22:01 47.19340 8.63462 39105 ft 526 kts 128°
2026-04-28 22:01 47.15022 8.72130 39110 ft 526 kts 128°
2026-04-28 22:02 47.10697 8.80775 39109 ft 525 kts 128°
2026-04-28 22:02 47.06370 8.89395 39108 ft 525 kts 128°
2026-04-28 22:03 47.02087 8.98058 39105 ft 525 kts 128°
2026-04-28 22:03 46.97790 9.06680 39114 ft 524 kts 128°
2026-04-28 22:04 46.93473 9.15269 39118 ft 524 kts 128°
2026-04-28 22:04 46.89118 9.23893 39122 ft 524 kts 128°
2026-04-28 22:05 46.84785 9.32444 39127 ft 524 kts 128°
2026-04-28 22:05 46.80449 9.40975 39133 ft 524 kts 128°
2026-04-28 22:06 46.76111 9.49483 39141 ft 523 kts 128°
2026-04-28 22:06 46.71772 9.57966 39150 ft 523 kts 128°
2026-04-28 22:07 46.67427 9.66437 39161 ft 523 kts 128°
2026-04-28 22:07 46.63079 9.74983 39166 ft 522 kts 128°
2026-04-28 22:08 46.58718 9.83412 39169 ft 522 kts 129°
2026-04-28 22:08 46.54349 9.91814 39171 ft 522 kts 129°
2026-04-28 22:09 46.49979 10.00203 39170 ft 521 kts 129°
2026-04-28 22:09 46.45315 10.08202 39170 ft 520 kts 136°
2026-04-28 22:10 46.40192 10.15567 39168 ft 519 kts 138°
2026-04-28 22:10 46.35011 10.22874 39166 ft 518 kts 138°
2026-04-28 22:11 46.29876 10.30176 39165 ft 518 kts 137°
2026-04-28 22:11 46.24750 10.37476 39168 ft 518 kts 137°
2026-04-28 22:12 46.19644 10.44846 39169 ft 519 kts 137°
2026-04-28 22:12 46.14545 10.52185 39168 ft 519 kts 137°
2026-04-28 22:13 46.09428 10.59495 39161 ft 519 kts 137°
2026-04-28 22:13 46.04295 10.66794 39164 ft 520 kts 137°
2026-04-28 22:14 45.99117 10.74132 39165 ft 520 kts 137°
2026-04-28 22:14 45.93980 10.81391 39161 ft 518 kts 137°
2026-04-28 22:15 45.88838 10.88635 39158 ft 518 kts 137°
2026-04-28 22:15 45.83692 10.95865 39152 ft 519 kts 137°
2026-04-28 22:16 45.78533 11.03094 39138 ft 520 kts 137°
2026-04-28 22:16 45.73363 11.10317 39123 ft 519 kts 138°
2026-04-28 22:17 45.68194 11.17521 39111 ft 520 kts 138°
2026-04-28 22:17 45.62974 11.24776 39103 ft 521 kts 138°
2026-04-28 22:18 45.57789 11.31962 39091 ft 520 kts 138°
2026-04-28 22:18 45.52597 11.39137 39088 ft 520 kts 138°
2026-04-28 22:19 45.47398 11.46304 39086 ft 521 kts 138°
2026-04-28 22:19 45.42191 11.53461 39085 ft 521 kts 138°
2026-04-28 22:20 45.36976 11.60612 39078 ft 521 kts 138°
2026-04-28 22:20 45.31724 11.67793 39067 ft 521 kts 138°
2026-04-28 22:21 45.27382 11.73715 39067 ft 521 kts 138°
2026-04-28 22:21 45.22167 11.80810 39066 ft 520 kts 138°
2026-04-28 22:22 45.16946 11.87894 39066 ft 520 kts 138°
2026-04-28 22:22 45.11686 11.95013 39067 ft 520 kts 138°
2026-04-28 22:23 45.06458 12.02070 39065 ft 520 kts 138°
2026-04-28 22:23 45.01214 12.09129 39066 ft 522 kts 138°
2026-04-28 22:24 44.95962 12.16179 39068 ft 521 kts 138°
2026-04-28 22:24 44.90712 12.23209 39066 ft 521 kts 138°
2026-04-28 22:25 44.85458 12.30224 39063 ft 520 kts 138°
2026-04-28 22:25 44.80208 12.37218 39055 ft 520 kts 138°
2026-04-28 22:26 44.74920 12.44242 39053 ft 520 kts 139°
2026-04-28 22:26 44.69661 12.51209 39052 ft 520 kts 139°
2026-04-28 22:27 44.64400 12.58162 39053 ft 520 kts 139°
2026-04-28 22:27 44.59136 12.65100 39054 ft 519 kts 139°
2026-04-28 22:28 44.53871 12.72021 39056 ft 520 kts 139°
2026-04-28 22:28 44.48602 12.78929 39056 ft 520 kts 139°
2026-04-28 22:29 44.43328 12.85827 39043 ft 520 kts 139°
2026-04-28 22:29 44.38015 12.92756 39041 ft 520 kts 139°
2026-04-28 22:30 44.32731 12.99630 39039 ft 520 kts 139°
2026-04-28 22:30 44.27441 13.06495 39038 ft 520 kts 139°
2026-04-28 22:31 44.22153 13.13340 39036 ft 520 kts 139°
2026-04-28 22:31 44.16855 13.20179 39036 ft 520 kts 139°
2026-04-28 22:32 44.11550 13.27010 39035 ft 520 kts 139°
2026-04-28 22:32 44.06208 13.33872 39034 ft 519 kts 139°
2026-04-28 22:33 44.00906 13.40664 39035 ft 519 kts 139°
2026-04-28 22:33 43.95604 13.47439 39029 ft 518 kts 139°
2026-04-28 22:34 43.90310 13.54187 39028 ft 517 kts 139°
2026-04-28 22:34 43.85013 13.60922 39028 ft 518 kts 139°
2026-04-28 22:35 43.79706 13.67653 39029 ft 518 kts 139°
2026-04-28 22:35 43.74352 13.74426 39029 ft 519 kts 139°
2026-04-28 22:36 43.69031 13.81141 39030 ft 519 kts 139°
2026-04-28 22:36 43.63722 13.87876 39032 ft 519 kts 139°
2026-04-28 22:37 43.58402 13.94553 39036 ft 518 kts 139°
2026-04-28 22:37 43.53069 14.01211 39039 ft 518 kts 139°
2026-04-28 22:38 43.47731 14.07862 39042 ft 518 kts 139°
2026-04-28 22:38 43.42402 14.14520 39044 ft 518 kts 139°
2026-04-28 22:39 43.37112 14.21303 39042 ft 518 kts 138°
2026-04-28 22:39 43.31844 14.28032 39043 ft 518 kts 139°
2026-04-28 22:40 43.26568 14.34742 39045 ft 518 kts 139°
2026-04-28 22:40 43.21292 14.41433 39048 ft 518 kts 139°
2026-04-28 22:41 43.16033 14.48146 39049 ft 518 kts 138°
2026-04-28 22:41 43.10785 14.54861 39051 ft 517 kts 139°
2026-04-28 22:42 43.05527 14.61536 39052 ft 516 kts 139°
2026-04-28 22:42 43.00227 14.68235 39052 ft 516 kts 139°
2026-04-28 22:43 42.94955 14.74876 39052 ft 516 kts 139°
2026-04-28 22:43 42.89680 14.81503 39053 ft 516 kts 139°
2026-04-28 22:44 42.84405 14.88114 39053 ft 516 kts 139°
2026-04-28 22:44 42.79120 14.94720 39053 ft 516 kts 139°
2026-04-28 22:45 42.73840 15.01304 39054 ft 516 kts 139°
2026-04-28 22:45 42.68515 15.07928 39057 ft 516 kts 139°
2026-04-28 22:46 42.63226 15.14492 39058 ft 516 kts 139°
2026-04-28 22:46 42.57929 15.21050 39059 ft 516 kts 139°
2026-04-28 22:47 42.52635 15.27588 39059 ft 516 kts 139°
2026-04-28 22:47 42.47337 15.34115 39059 ft 516 kts 139°
2026-04-28 22:48 42.42030 15.40638 39061 ft 516 kts 139°
2026-04-28 22:48 42.36725 15.47143 39072 ft 516 kts 140°
2026-04-28 22:49 42.31382 15.53678 39066 ft 516 kts 140°
2026-04-28 22:49 42.26070 15.60161 39057 ft 515 kts 140°
2026-04-28 22:50 42.20756 15.66631 39056 ft 515 kts 140°
2026-04-28 22:50 42.15440 15.73087 39056 ft 515 kts 140°
2026-04-28 22:51 42.10118 15.79537 39053 ft 515 kts 140°
2026-04-28 22:51 42.04799 15.85967 39053 ft 515 kts 140°
2026-04-28 22:52 41.99436 15.92434 39138 ft 516 kts 140°
2026-04-28 22:52 41.96761 15.95655 39263 ft 517 kts 140°
2026-04-28 22:52 41.94081 15.98877 39388 ft 518 kts 140°
2026-04-28 22:52 41.91398 16.02099 39513 ft 518 kts 140°
2026-04-28 22:53 41.88714 16.05320 39637 ft 519 kts 140°
2026-04-28 22:53 41.86023 16.08544 39762 ft 519 kts 140°
2026-04-28 22:53 41.83332 16.11764 39887 ft 520 kts 140°
2026-04-28 22:53 41.80637 16.14987 40011 ft 520 kts 140°
2026-04-28 22:54 41.77939 16.18208 40137 ft 521 kts 140°
2026-04-28 22:54 41.75237 16.21430 40261 ft 521 kts 140°
2026-04-28 22:54 41.72532 16.24653 40386 ft 521 kts 140°
2026-04-28 22:54 41.69829 16.27869 40510 ft 522 kts 140°
2026-04-28 22:55 41.67076 16.31140 40637 ft 523 kts 140°
2026-04-28 22:55 41.64360 16.34364 40762 ft 523 kts 140°
2026-04-28 22:55 41.61644 16.37584 40887 ft 523 kts 140°
2026-04-28 22:55 41.58925 16.40804 41011 ft 524 kts 141°
2026-04-28 22:56 41.56200 16.44027 41048 ft 524 kts 141°
2026-04-28 22:56 41.50740 16.50474 41053 ft 525 kts 141°
2026-04-28 22:57 41.45273 16.56914 41053 ft 525 kts 141°
2026-04-28 22:57 41.39807 16.63338 41057 ft 525 kts 141°
2026-04-28 22:58 41.34337 16.69752 41057 ft 525 kts 141°
2026-04-28 22:58 41.28824 16.76200 41056 ft 525 kts 141°
2026-04-28 22:59 41.23344 16.82596 41056 ft 525 kts 141°
2026-04-28 22:59 41.17854 16.88988 41055 ft 526 kts 141°
2026-04-28 23:00 41.12365 16.95364 41054 ft 525 kts 141°
2026-04-28 23:00 41.06867 17.01736 41059 ft 525 kts 141°
2026-04-28 23:01 41.01369 17.08093 41064 ft 526 kts 141°
2026-04-28 23:01 40.95831 17.14481 41068 ft 526 kts 141°
2026-04-28 23:02 40.90325 17.20818 41070 ft 526 kts 141°
2026-04-28 23:02 40.84813 17.27148 41069 ft 526 kts 141°
2026-04-28 23:03 40.79297 17.33468 41066 ft 526 kts 141°
2026-04-28 23:03 40.73773 17.39782 41065 ft 527 kts 142°
2026-04-28 23:04 40.68240 17.46092 41062 ft 526 kts 142°
2026-04-28 23:04 40.59905 17.55571 41061 ft 526 kts 142°
2026-04-28 23:05 40.54370 17.61849 41063 ft 527 kts 142°
2026-04-28 23:05 40.48816 17.68132 41066 ft 528 kts 142°
2026-04-28 23:06 40.43264 17.74399 41071 ft 527 kts 142°
2026-04-28 23:06 40.37708 17.80655 41072 ft 527 kts 142°
2026-04-28 23:07 40.32151 17.86901 41075 ft 528 kts 142°
2026-04-28 23:07 40.26579 17.93148 41080 ft 528 kts 142°
2026-04-28 23:08 40.21216 17.99147 41080 ft 528 kts 142°
2026-04-28 23:08 40.15646 18.05365 41082 ft 528 kts 142°
2026-04-28 23:09 40.10063 18.11584 41083 ft 528 kts 142°
2026-04-28 23:09 40.04484 18.17784 41081 ft 528 kts 142°
2026-04-28 23:10 39.98862 18.24019 41086 ft 527 kts 142°
2026-04-28 23:10 39.93275 18.30202 41083 ft 528 kts 142°
2026-04-28 23:11 39.87677 18.36379 41082 ft 528 kts 142°
2026-04-28 23:11 39.82076 18.42550 41084 ft 528 kts 142°
2026-04-28 23:12 39.76469 18.48712 41084 ft 529 kts 142°
2026-04-28 23:12 39.70853 18.54871 41084 ft 529 kts 142°
2026-04-28 23:13 39.65229 18.61026 41085 ft 530 kts 142°
2026-04-28 23:13 39.59560 18.67215 41085 ft 530 kts 143°
2026-04-28 23:14 39.54880 18.72315 41087 ft 530 kts 143°
2026-04-28 23:14 39.48311 18.79501 41088 ft 530 kts 143°
2026-04-28 23:15 39.43612 18.84591 41089 ft 531 kts 143°
2026-04-28 23:15 39.37912 18.90746 41089 ft 531 kts 143°
2026-04-28 23:16 39.31328 18.97844 41090 ft 531 kts 143°
2026-04-28 23:16 39.26612 19.02995 41090 ft 532 kts 141°
2026-04-28 23:17 39.21059 19.09282 41091 ft 532 kts 141°
2026-04-28 23:17 39.15480 19.15563 41092 ft 533 kts 141°
2026-04-28 23:18 39.09892 19.21825 41087 ft 533 kts 142°
2026-04-28 23:18 39.04303 19.28071 41088 ft 533 kts 142°
2026-04-28 23:19 38.98698 19.34394 41089 ft 533 kts 141°
2026-04-28 23:19 38.93127 19.40653 41090 ft 533 kts 141°
2026-04-28 23:20 38.87533 19.46900 41092 ft 534 kts 141°
2026-04-28 23:20 38.81932 19.53136 41093 ft 534 kts 142°
2026-04-28 23:21 38.76318 19.59369 41095 ft 535 kts 142°
2026-04-28 23:21 38.70700 19.65592 41096 ft 535 kts 142°
2026-04-28 23:22 38.65034 19.71855 41098 ft 536 kts 142°
2026-04-28 23:22 38.59400 19.78068 41104 ft 535 kts 142°
2026-04-28 23:23 38.53763 19.84272 41123 ft 536 kts 142°
2026-04-28 23:23 38.48113 19.90475 41123 ft 536 kts 142°
2026-04-28 23:24 38.42464 19.96665 41119 ft 536 kts 142°
2026-04-28 23:24 38.36814 20.02842 41119 ft 536 kts 142°
2026-04-28 23:25 38.31160 20.09012 41118 ft 536 kts 142°
2026-04-28 23:25 38.25462 20.15216 41117 ft 536 kts 142°
2026-04-28 23:26 38.19798 20.21369 41116 ft 536 kts 142°
2026-04-28 23:26 38.14134 20.27509 41114 ft 536 kts 142°
2026-04-28 23:27 38.08466 20.33641 41112 ft 536 kts 142°
2026-04-28 23:27 38.02796 20.39762 41112 ft 536 kts 142°
2026-04-28 23:28 37.97119 20.45878 41113 ft 538 kts 142°
2026-04-28 23:28 37.91377 20.52051 41113 ft 539 kts 142°
2026-04-28 23:29 37.85666 20.58176 41115 ft 539 kts 142°
2026-04-28 23:29 37.79957 20.64288 41115 ft 538 kts 142°
2026-04-28 23:30 37.74246 20.70389 41114 ft 539 kts 142°
2026-04-28 23:30 37.68525 20.76486 41112 ft 539 kts 142°
2026-04-28 23:31 37.62790 20.82587 41112 ft 540 kts 142°
2026-04-28 23:31 37.57054 20.88677 41114 ft 540 kts 142°
2026-04-28 23:32 37.51272 20.94801 41117 ft 540 kts 142°
2026-04-28 23:32 37.45522 21.00880 41119 ft 541 kts 143°
2026-04-28 23:33 37.39764 21.06954 41120 ft 541 kts 143°
2026-04-28 23:33 37.34003 21.13019 41121 ft 541 kts 143°
2026-04-28 23:34 37.28238 21.19075 41121 ft 541 kts 143°
2026-04-28 23:34 37.22469 21.25123 41121 ft 541 kts 143°
2026-04-28 23:35 37.16655 21.31206 41117 ft 542 kts 143°
2026-04-28 23:35 37.10877 21.37238 41116 ft 542 kts 143°
2026-04-28 23:36 37.05096 21.43262 41119 ft 542 kts 143°
2026-04-28 23:36 36.99304 21.49284 41117 ft 543 kts 143°
2026-04-28 23:37 36.93504 21.55303 41116 ft 543 kts 143°
2026-04-28 23:37 36.87701 21.61311 41115 ft 543 kts 143°
2026-04-28 23:38 36.81891 21.67315 41114 ft 543 kts 143°
2026-04-28 23:38 36.76035 21.73355 41114 ft 544 kts 143°
2026-04-28 23:39 36.70204 21.79356 41114 ft 544 kts 143°
2026-04-28 23:39 36.64364 21.85354 41114 ft 545 kts 143°
2026-04-28 23:40 36.58520 21.91345 41114 ft 545 kts 143°
2026-04-28 23:40 36.52676 21.97322 41115 ft 545 kts 143°
2026-04-28 23:41 36.46824 22.03297 41113 ft 545 kts 143°
2026-04-28 23:41 36.40966 22.09265 41112 ft 546 kts 143°
2026-04-28 23:42 36.35069 22.15261 41112 ft 546 kts 143°
2026-04-28 23:42 36.29203 22.21214 41112 ft 545 kts 143°
2026-04-28 23:43 36.23338 22.27153 41110 ft 545 kts 143°
2026-04-28 23:43 36.17465 22.33088 41110 ft 545 kts 143°
2026-04-28 23:44 36.11594 22.39010 41109 ft 545 kts 143°
2026-04-28 23:44 36.05718 22.44925 41109 ft 545 kts 143°
2026-04-28 23:45 35.99801 22.50870 41109 ft 545 kts 143°
2026-04-28 23:45 35.93917 22.56769 41109 ft 546 kts 143°
2026-04-28 23:46 35.88021 22.62669 41108 ft 547 kts 143°
2026-04-28 23:46 35.82113 22.68569 41108 ft 547 kts 144°
2026-04-28 23:47 35.76204 22.74459 41107 ft 547 kts 144°
2026-04-28 23:47 35.70288 22.80343 41105 ft 548 kts 144°
2026-04-28 23:48 35.64322 22.86267 41105 ft 549 kts 144°
2026-04-28 23:48 35.58386 22.92148 41103 ft 549 kts 144°
2026-04-28 23:49 35.52447 22.98022 41111 ft 549 kts 144°
2026-04-28 23:49 35.46510 23.03881 41105 ft 549 kts 144°
2026-04-28 23:50 35.40564 23.09737 41099 ft 549 kts 144°
2026-04-28 23:50 35.34618 23.15583 41097 ft 549 kts 144°
2026-04-28 23:51 35.28670 23.21419 41094 ft 549 kts 144°
2026-04-28 23:51 35.22677 23.27288 41092 ft 549 kts 144°
2026-04-28 23:52 35.16719 23.33111 41091 ft 550 kts 144°
2026-04-28 23:52 35.10748 23.38936 41090 ft 551 kts 144°
2026-04-28 23:53 35.04770 23.44756 41090 ft 550 kts 144°
2026-04-28 23:53 34.98793 23.50564 41089 ft 550 kts 144°
2026-04-28 23:54 34.92808 23.56370 41089 ft 551 kts 144°
2026-04-28 23:54 34.86771 23.62213 41088 ft 551 kts 144°
2026-04-28 23:55 34.80770 23.68012 41088 ft 552 kts 144°
2026-04-28 23:55 34.74761 23.73806 41088 ft 552 kts 144°
2026-04-28 23:56 34.68754 23.79588 41088 ft 552 kts 144°
2026-04-28 23:56 34.62734 23.85370 41088 ft 553 kts 144°
2026-04-28 23:57 34.56708 23.91148 41088 ft 553 kts 144°
2026-04-28 23:57 34.50677 23.96921 41088 ft 554 kts 144°
2026-04-28 23:58 34.44594 24.02731 41088 ft 553 kts 144°
2026-04-28 23:58 34.38558 24.08485 41087 ft 553 kts 145°
2026-04-28 23:59 34.32519 24.14233 41088 ft 554 kts 145°
2026-04-28 23:59 34.26467 24.19981 41095 ft 554 kts 145°
2026-04-29 00:00 34.20427 24.25738 41095 ft 554 kts 145°
2026-04-29 00:00 34.14369 24.31465 41096 ft 554 kts 145°
2026-04-29 00:01 34.08267 24.37217 41096 ft 554 kts 145°
2026-04-29 00:01 34.02205 24.42922 41095 ft 553 kts 145°
2026-04-29 00:02 33.96277 24.48827 41096 ft 555 kts 141°
2026-04-29 00:02 33.90550 24.55065 41096 ft 557 kts 141°
2026-04-29 00:03 33.84796 24.61280 41096 ft 557 kts 141°
2026-04-29 00:03 33.79026 24.67462 41095 ft 556 kts 141°
2026-04-29 00:04 33.73253 24.73635 41095 ft 556 kts 141°
2026-04-29 00:04 33.67460 24.79873 41095 ft 557 kts 141°
2026-04-29 00:05 33.61689 24.86042 41095 ft 557 kts 141°
2026-04-29 00:05 33.55912 24.92197 41095 ft 556 kts 141°
2026-04-29 00:06 33.50138 24.98333 41095 ft 556 kts 141°
2026-04-29 00:06 33.44360 25.04460 41095 ft 555 kts 141°
2026-04-29 00:07 33.38584 25.10573 41097 ft 555 kts 141°
2026-04-29 00:07 33.32760 25.16726 41097 ft 556 kts 141°
2026-04-29 00:08 33.27948 25.21801 41070 ft 556 kts 141°
2026-04-29 00:08 33.22159 25.27896 41066 ft 555 kts 141°
2026-04-29 00:09 33.16371 25.33979 41066 ft 556 kts 141°
2026-04-29 00:09 33.09594 25.41087 41065 ft 556 kts 142°
2026-04-29 00:10 33.04733 25.46176 41065 ft 556 kts 142°
2026-04-29 00:10 32.98924 25.52247 41065 ft 557 kts 142°
2026-04-29 00:11 32.93106 25.58318 41064 ft 557 kts 142°
2026-04-29 00:12 32.84367 25.67413 41065 ft 558 kts 142°
2026-04-29 00:12 32.78531 25.73474 41066 ft 558 kts 142°
2026-04-29 00:13 32.72691 25.79528 41066 ft 558 kts 142°
2026-04-29 00:13 32.66801 25.85623 41067 ft 559 kts 142°
2026-04-29 00:14 32.60942 25.91675 41068 ft 560 kts 142°
2026-04-29 00:14 32.55076 25.97723 41068 ft 560 kts 143°
2026-04-29 00:15 32.49214 26.03757 41069 ft 559 kts 143°
2026-04-29 00:15 32.43349 26.09781 41066 ft 557 kts 142°
2026-04-29 00:16 32.37512 26.15768 41067 ft 556 kts 142°
2026-04-29 00:16 32.31634 26.21786 41068 ft 556 kts 142°
2026-04-29 00:17 32.25788 26.27759 41070 ft 556 kts 142°
2026-04-29 00:17 32.19943 26.33722 41071 ft 556 kts 142°
2026-04-29 00:18 32.14090 26.39681 41072 ft 556 kts 142°
2026-04-29 00:18 32.08239 26.45629 41074 ft 556 kts 142°
2026-04-29 00:19 32.02382 26.51572 41075 ft 556 kts 142°
2026-04-29 00:19 31.96525 26.57506 41076 ft 556 kts 143°
2026-04-29 00:20 31.90626 26.63471 41077 ft 556 kts 143°
2026-04-29 00:20 31.84762 26.69390 41078 ft 556 kts 143°
2026-04-29 00:21 31.78897 26.75300 41080 ft 556 kts 143°
2026-04-29 00:21 31.73034 26.81198 41080 ft 556 kts 143°
2026-04-29 00:22 31.67169 26.87087 41081 ft 555 kts 143°
2026-04-29 00:22 31.61306 26.92965 41081 ft 555 kts 143°
2026-04-29 00:23 31.55449 26.98836 41082 ft 555 kts 143°
2026-04-29 00:23 31.49558 27.04742 41082 ft 554 kts 143°
2026-04-29 00:24 31.43689 27.10585 41082 ft 555 kts 143°
2026-04-29 00:24 31.37820 27.16419 41083 ft 555 kts 143°
2026-04-29 00:25 31.31799 27.21982 41085 ft 548 kts 152°
2026-04-29 00:25 31.25141 27.26130 41084 ft 541 kts 161°
2026-04-29 00:26 31.18248 27.29737 41083 ft 540 kts 161°
2026-04-29 00:26 31.11427 27.33399 41081 ft 541 kts 161°
2026-04-29 00:27 31.04593 27.37090 41081 ft 541 kts 161°
2026-04-29 00:27 30.97789 27.40763 41080 ft 540 kts 161°
2026-04-29 00:28 30.91210 27.45104 41086 ft 551 kts 150°
2026-04-29 00:28 30.85128 27.50552 41080 ft 554 kts 145°
2026-04-29 00:29 30.79172 27.56206 41079 ft 553 kts 146°
2026-04-29 00:29 30.73175 27.61792 41080 ft 554 kts 146°
2026-04-29 00:30 30.67106 27.67395 41074 ft 554 kts 146°
2026-04-29 00:30 30.61091 27.72978 41071 ft 554 kts 146°
2026-04-29 00:31 30.55079 27.78528 41071 ft 553 kts 146°
2026-04-29 00:31 30.49060 27.84065 41070 ft 554 kts 146°
2026-04-29 00:32 30.43028 27.89602 41070 ft 554 kts 147°
2026-04-29 00:32 30.37005 27.95122 41069 ft 553 kts 147°
2026-04-29 00:33 30.30976 28.00638 41066 ft 553 kts 147°
2026-04-29 00:33 30.24901 28.06186 41066 ft 554 kts 147°
2026-04-29 00:34 30.18864 28.11692 41061 ft 554 kts 147°
2026-04-29 00:34 30.12826 28.17189 41071 ft 553 kts 147°
2026-04-29 00:35 30.06799 28.22693 41077 ft 553 kts 147°
2026-04-29 00:35 30.00753 28.28174 41073 ft 553 kts 147°
2026-04-29 00:36 29.94705 28.33645 41073 ft 554 kts 147°
2026-04-29 00:36 29.88661 28.39117 41071 ft 554 kts 146°
2026-04-29 00:37 29.83263 28.45616 41073 ft 564 kts 133°
2026-04-29 00:37 29.78564 28.52861 41076 ft 565 kts 130°
2026-04-29 00:38 29.73807 28.60038 41073 ft 565 kts 131°
2026-04-29 00:38 29.69007 28.67173 41074 ft 565 kts 131°
2026-04-29 00:39 29.63990 28.74090 41074 ft 563 kts 137°
2026-04-29 00:39 29.58666 28.80670 41074 ft 562 kts 137°
2026-04-29 00:40 29.53357 28.87317 41074 ft 562 kts 137°
2026-04-29 00:40 29.48086 28.93922 41075 ft 562 kts 137°
2026-04-29 00:41 29.42812 29.00527 41075 ft 562 kts 137°
2026-04-29 00:41 29.37267 29.06762 41076 ft 557 kts 146°
2026-04-29 00:42 29.31135 29.12120 41076 ft 553 kts 150°
2026-04-29 00:42 29.24983 29.17359 41077 ft 551 kts 149°
2026-04-29 00:43 29.18871 29.22642 41078 ft 552 kts 149°
2026-04-29 00:43 29.12710 29.27970 41079 ft 552 kts 149°
2026-04-29 00:44 29.06568 29.33213 41080 ft 552 kts 150°
2026-04-29 00:44 29.00356 29.38336 41081 ft 551 kts 150°
2026-04-29 00:45 28.94162 29.43458 41074 ft 550 kts 150°
2026-04-29 00:45 28.87967 29.48582 41041 ft 551 kts 151°
2026-04-29 00:46 28.81775 29.53703 41040 ft 551 kts 150°
2026-04-29 00:46 28.75597 29.58846 41041 ft 551 kts 151°
2026-04-29 00:47 28.69371 29.64002 41042 ft 550 kts 151°
2026-04-29 00:47 28.63193 29.69103 41043 ft 550 kts 151°
2026-04-29 00:48 28.56994 29.74211 41045 ft 550 kts 151°
2026-04-29 00:48 28.50798 29.79310 41047 ft 551 kts 151°
2026-04-29 00:49 28.44601 29.84400 41048 ft 550 kts 152°
2026-04-29 00:49 28.38406 29.89482 41050 ft 550 kts 152°
2026-04-29 00:50 28.32213 29.94554 41051 ft 550 kts 152°
2026-04-29 00:50 28.25982 29.99651 41049 ft 549 kts 152°
2026-04-29 00:51 28.19791 30.04707 41052 ft 549 kts 152°
2026-04-29 00:51 28.13604 30.09753 41055 ft 549 kts 152°
2026-04-29 00:52 28.07409 30.14796 41057 ft 549 kts 152°
2026-04-29 00:52 28.01215 30.19833 41060 ft 549 kts 152°
2026-04-29 00:53 27.95022 30.24862 41062 ft 549 kts 152°
2026-04-29 00:53 27.88824 30.29887 41065 ft 549 kts 152°
2026-04-29 00:54 27.82590 30.34935 41066 ft 548 kts 152°
2026-04-29 00:54 27.76403 30.39936 41069 ft 547 kts 152°
2026-04-29 00:55 27.70221 30.44927 41071 ft 547 kts 152°
2026-04-29 00:55 27.64038 30.49912 41073 ft 547 kts 152°
2026-04-29 00:56 27.57861 30.54884 41075 ft 546 kts 152°
2026-04-29 00:56 27.51686 30.59849 41076 ft 545 kts 152°
2026-04-29 00:57 27.45524 30.64795 41078 ft 544 kts 152°
2026-04-29 00:57 27.39330 30.69760 41079 ft 543 kts 153°
2026-04-29 00:58 27.33183 30.74682 41080 ft 543 kts 153°
2026-04-29 00:58 27.27036 30.79597 41081 ft 543 kts 153°
2026-04-29 00:59 27.20890 30.84523 41081 ft 543 kts 153°
2026-04-29 00:59 27.14750 30.89412 41081 ft 542 kts 153°
2026-04-29 01:00 27.08608 30.94295 41082 ft 542 kts 153°
2026-04-29 01:00 27.02449 30.99256 41070 ft 547 kts 149°
2026-04-29 01:01 26.97082 31.05384 41082 ft 556 kts 138°
2026-04-29 01:01 26.92204 31.12140 41082 ft 561 kts 135°
2026-04-29 01:02 26.87332 31.18967 41080 ft 562 kts 136°
2026-04-29 01:02 26.82414 31.25747 41076 ft 561 kts 136°
2026-04-29 01:03 26.77494 31.32515 41072 ft 561 kts 136°
2026-04-29 01:03 26.72589 31.39280 41067 ft 560 kts 136°
2026-04-29 01:04 26.68470 31.44928 41062 ft 560 kts 136°
2026-04-29 01:04 26.63546 31.51662 41054 ft 560 kts 136°
2026-04-29 01:05 26.58621 31.58384 41046 ft 560 kts 136°
2026-04-29 01:05 26.53694 31.65098 41035 ft 559 kts 136°
2026-04-29 01:06 26.48740 31.71838 41025 ft 559 kts 136°
2026-04-29 01:06 26.43810 31.78535 41014 ft 559 kts 137°
2026-04-29 01:07 26.38877 31.85227 41005 ft 560 kts 137°
2026-04-29 01:07 26.33942 31.91912 40994 ft 558 kts 137°
2026-04-29 01:08 26.29013 31.98577 40985 ft 558 kts 137°
2026-04-29 01:08 26.24082 32.05237 40977 ft 558 kts 137°
2026-04-29 01:09 26.19117 32.11933 40969 ft 558 kts 137°
2026-04-29 01:09 26.14174 32.18589 40962 ft 559 kts 137°
2026-04-29 01:10 26.09225 32.25243 40956 ft 559 kts 137°
2026-04-29 01:10 26.04270 32.31897 40950 ft 559 kts 137°
2026-04-29 01:11 25.99314 32.38541 40947 ft 559 kts 137°
2026-04-29 01:11 25.94366 32.45166 40942 ft 557 kts 137°
2026-04-29 01:12 25.89438 32.51782 40939 ft 556 kts 137°
2026-04-29 01:12 25.84466 32.58417 40937 ft 556 kts 137°
2026-04-29 01:13 25.79528 32.64986 40936 ft 554 kts 137°
2026-04-29 01:13 25.74600 32.71538 40935 ft 554 kts 137°
2026-04-29 01:14 25.69923 32.78330 40935 ft 557 kts 131°
2026-04-29 01:14 25.65690 32.85529 40935 ft 560 kts 129°
2026-04-29 01:15 25.61434 32.92736 40935 ft 559 kts 130°
2026-04-29 01:15 25.57126 32.99946 40935 ft 557 kts 130°
2026-04-29 01:16 25.52849 33.07084 40934 ft 557 kts 130°
2026-04-29 01:16 25.48588 33.14237 40934 ft 557 kts 130°
2026-04-29 01:17 25.44329 33.21370 40932 ft 555 kts 130°
2026-04-29 01:17 25.40062 33.28468 40931 ft 555 kts 130°
2026-04-29 01:18 25.35782 33.35559 40930 ft 555 kts 130°
2026-04-29 01:18 25.29355 33.46191 40928 ft 555 kts 130°
2026-04-29 01:19 25.25046 33.53308 40927 ft 554 kts 130°
2026-04-29 01:19 25.20759 33.60366 40926 ft 554 kts 130°
2026-04-29 01:20 25.16476 33.67406 40924 ft 553 kts 130°
2026-04-29 01:20 25.12196 33.74431 40923 ft 552 kts 130°
2026-04-29 01:21 25.07928 33.81457 40921 ft 552 kts 130°
2026-04-29 01:21 25.03672 33.88485 40920 ft 552 kts 130°
2026-04-29 01:22 24.99373 33.95548 40919 ft 551 kts 130°
2026-04-29 01:22 24.95109 34.02533 40918 ft 549 kts 130°
2026-04-29 01:23 24.90868 34.09490 40917 ft 546 kts 130°
2026-04-29 01:23 24.86636 34.16418 40917 ft 546 kts 130°
2026-04-29 01:24 24.82399 34.23330 40916 ft 546 kts 131°
2026-04-29 01:24 24.78152 34.30243 40915 ft 546 kts 131°
2026-04-29 01:25 24.73902 34.37149 40915 ft 545 kts 131°
2026-04-29 01:25 24.69628 34.44084 40914 ft 545 kts 131°
2026-04-29 01:26 24.65379 34.50969 40914 ft 545 kts 131°
2026-04-29 01:26 24.61129 34.57846 40914 ft 544 kts 131°
2026-04-29 01:27 24.56880 34.64711 40906 ft 544 kts 131°
2026-04-29 01:27 24.52615 34.71592 40905 ft 544 kts 131°
2026-04-29 01:28 24.48359 34.78450 40905 ft 544 kts 131°
2026-04-29 01:28 24.44104 34.85295 40902 ft 543 kts 131°
2026-04-29 01:29 24.39854 34.92123 40901 ft 543 kts 131°
2026-04-29 01:29 24.35603 34.98945 40900 ft 543 kts 131°
2026-04-29 01:30 24.31320 35.05806 40898 ft 542 kts 131°
2026-04-29 01:30 24.27065 35.12614 40897 ft 542 kts 131°
2026-04-29 01:31 24.22811 35.19412 40895 ft 542 kts 131°
2026-04-29 01:31 24.18556 35.26202 40893 ft 541 kts 131°
2026-04-29 01:32 24.14298 35.32987 40898 ft 541 kts 131°
2026-04-29 01:32 24.10057 35.39766 40905 ft 541 kts 131°
2026-04-29 01:33 24.05775 35.46571 40904 ft 540 kts 131°
2026-04-29 01:33 24.01514 35.53320 40903 ft 540 kts 131°
2026-04-29 01:34 23.97255 35.60060 40896 ft 539 kts 131°
2026-04-29 01:34 23.93003 35.66786 40893 ft 538 kts 131°
2026-04-29 01:35 23.88741 35.73496 40865 ft 538 kts 131°
2026-04-29 01:35 23.84477 35.80201 40857 ft 538 kts 131°
2026-04-29 01:36 23.80207 35.86906 40854 ft 539 kts 131°
2026-04-29 01:36 23.75905 35.93653 40850 ft 539 kts 131°
2026-04-29 01:37 23.71650 36.00368 40847 ft 538 kts 131°
2026-04-29 01:37 23.67391 36.07072 40844 ft 538 kts 131°
2026-04-29 01:38 23.63126 36.13761 40841 ft 538 kts 131°
2026-04-29 01:38 23.58861 36.20435 40839 ft 537 kts 131°
2026-04-29 01:39 23.54601 36.27091 40836 ft 536 kts 131°
2026-04-29 01:39 23.50314 36.33781 40834 ft 535 kts 131°
2026-04-29 01:40 23.46059 36.40412 40831 ft 535 kts 131°
2026-04-29 01:40 23.41803 36.47036 40829 ft 534 kts 131°
2026-04-29 01:41 23.37549 36.53649 40821 ft 534 kts 131°
2026-04-29 01:41 23.33294 36.60253 40820 ft 534 kts 131°
2026-04-29 01:42 23.29043 36.66845 40819 ft 532 kts 131°
2026-04-29 01:42 23.24800 36.73415 40817 ft 531 kts 131°
2026-04-29 01:43 23.20529 36.80019 40816 ft 531 kts 131°
2026-04-29 01:43 23.16298 36.86577 40815 ft 531 kts 130°
2026-04-29 01:44 23.12061 36.93120 40814 ft 530 kts 131°
2026-04-29 01:44 23.07814 36.99651 40814 ft 530 kts 131°
2026-04-29 01:45 23.03572 37.06169 40813 ft 529 kts 131°
2026-04-29 01:45 22.99331 37.12681 40813 ft 528 kts 130°
2026-04-29 01:46 22.95083 37.19162 40813 ft 527 kts 131°
2026-04-29 01:46 22.90811 37.25677 40812 ft 527 kts 130°
2026-04-29 01:47 22.86585 37.32155 40812 ft 526 kts 131°
2026-04-29 01:47 22.82348 37.38599 40812 ft 525 kts 131°
2026-04-29 01:48 22.78113 37.45030 40812 ft 525 kts 131°
2026-04-29 01:48 22.73876 37.51457 40812 ft 525 kts 131°
2026-04-29 01:49 22.69641 37.57873 40813 ft 524 kts 131°
2026-04-29 01:49 22.65395 37.64328 40812 ft 523 kts 130°
2026-04-29 01:50 22.61192 37.70731 40813 ft 522 kts 130°
2026-04-29 01:50 22.56993 37.77120 40813 ft 521 kts 130°
2026-04-29 01:51 22.52797 37.83498 40813 ft 521 kts 130°
2026-04-29 01:51 22.48603 37.89868 40810 ft 520 kts 130°
2026-04-29 01:52 22.44436 37.96253 40810 ft 520 kts 130°
2026-04-29 01:52 22.40226 38.02654 40810 ft 519 kts 130°
2026-04-29 01:53 22.36039 38.08990 40819 ft 518 kts 130°
2026-04-29 01:53 22.31855 38.15312 40827 ft 519 kts 130°
2026-04-29 01:54 22.29591 38.18304 40820 ft 511 kts 141°
2026-04-29 01:54 22.26770 38.20572 40825 ft 503 kts 156°
2026-04-29 01:54 22.20383 38.23463 40828 ft 496 kts 167°
2026-04-29 01:55 22.13787 38.25384 40825 ft 489 kts 172°
2026-04-29 01:55 22.07188 38.27013 40824 ft 484 kts 172°
2026-04-29 01:56 22.00618 38.28679 40824 ft 482 kts 172°
2026-04-29 01:56 21.94092 38.30358 40823 ft 484 kts 172°
2026-04-29 01:57 21.87553 38.32059 40823 ft 484 kts 172°
2026-04-29 01:57 21.81015 38.33757 40822 ft 484 kts 172°
2026-04-29 01:58 21.75538 38.35178 40822 ft 484 kts 172°
2026-04-29 01:58 21.69008 38.36872 40822 ft 484 kts 172°
2026-04-29 01:59 21.62472 38.38565 40842 ft 484 kts 172°
2026-04-29 01:59 21.55940 38.40255 40843 ft 483 kts 172°
2026-04-29 02:00 21.49419 38.41941 40843 ft 483 kts 172°
2026-04-29 02:00 21.42883 38.43630 41059 ft 486 kts 171°
2026-04-29 02:01 21.39600 38.44477 41184 ft 486 kts 171°
2026-04-29 02:01 21.36318 38.45324 41309 ft 485 kts 171°
2026-04-29 02:01 21.33042 38.46169 41433 ft 485 kts 171°
2026-04-29 02:01 21.29729 38.47023 41560 ft 484 kts 171°
2026-04-29 02:02 21.26461 38.47865 41684 ft 484 kts 171°
2026-04-29 02:02 21.23197 38.48705 41809 ft 483 kts 171°
2026-04-29 02:02 21.19934 38.49546 41934 ft 483 kts 171°
2026-04-29 02:02 21.16676 38.50384 42059 ft 482 kts 171°
2026-04-29 02:03 21.13421 38.51221 42184 ft 481 kts 171°
2026-04-29 02:03 21.10174 38.52056 42309 ft 481 kts 171°
2026-04-29 02:03 21.06927 38.52890 42433 ft 480 kts 171°
2026-04-29 02:03 21.03686 38.53722 42558 ft 480 kts 171°
2026-04-29 02:04 21.00443 38.54555 42683 ft 479 kts 171°
2026-04-29 02:04 20.97208 38.55385 42762 ft 479 kts 171°
2026-04-29 02:04 20.90698 38.57055 42837 ft 479 kts 171°
2026-04-29 02:05 20.84235 38.58711 42842 ft 478 kts 171°
2026-04-29 02:05 20.77783 38.60362 42845 ft 477 kts 171°
2026-04-29 02:06 20.71335 38.62012 42848 ft 477 kts 171°
2026-04-29 02:06 20.64891 38.63659 42851 ft 477 kts 171°
2026-04-29 02:07 20.58449 38.65313 42855 ft 477 kts 170°
2026-04-29 02:07 20.52007 38.66972 42859 ft 477 kts 170°
2026-04-29 02:08 20.45523 38.68629 42862 ft 476 kts 171°
2026-04-29 02:08 20.39088 38.70268 42866 ft 476 kts 170°
2026-04-29 02:09 20.32648 38.71906 42870 ft 477 kts 170°
2026-04-29 02:09 20.26211 38.73541 42838 ft 476 kts 170°
2026-04-29 02:10 20.19776 38.75174 42837 ft 476 kts 170°
2026-04-29 02:10 20.13345 38.76805 42839 ft 476 kts 170°
2026-04-29 02:11 20.06908 38.78436 42840 ft 476 kts 170°
2026-04-29 02:11 20.00430 38.80075 42850 ft 476 kts 170°
2026-04-29 02:12 19.94001 38.81701 42878 ft 475 kts 170°
2026-04-29 02:12 19.87579 38.83324 42884 ft 475 kts 170°
2026-04-29 02:13 19.81160 38.84945 42889 ft 475 kts 170°
2026-04-29 02:13 19.74731 38.86567 42894 ft 475 kts 170°
2026-04-29 02:14 19.68311 38.88185 42899 ft 475 kts 170°
2026-04-29 02:14 19.61854 38.89811 42904 ft 474 kts 170°
2026-04-29 02:15 19.55438 38.91426 42916 ft 474 kts 169°
2026-04-29 02:15 19.49021 38.93040 42943 ft 475 kts 169°
2026-04-29 02:16 19.42600 38.94655 42949 ft 475 kts 169°
2026-04-29 02:16 19.36187 38.96267 42954 ft 474 kts 169°
2026-04-29 02:17 19.29770 38.97876 42960 ft 475 kts 169°
2026-04-29 02:17 19.23351 38.99484 42965 ft 474 kts 169°
2026-04-29 02:18 19.16892 39.01100 42971 ft 475 kts 169°
2026-04-29 02:18 19.10406 39.02100 42978 ft 471 kts 181°
2026-04-29 02:19 19.03873 39.01936 42982 ft 470 kts 185°
2026-04-29 02:19 18.97371 39.01487 42986 ft 469 kts 186°
2026-04-29 02:20 18.90871 39.01090 42991 ft 469 kts 185°
2026-04-29 02:20 18.84360 39.00719 42996 ft 469 kts 185°
2026-04-29 02:21 18.77808 39.00353 43000 ft 469 kts 185°
2026-04-29 02:21 18.71292 38.99991 43005 ft 470 kts 185°
2026-04-29 02:22 18.64772 38.99629 43010 ft 470 kts 185°
2026-04-29 02:22 18.58256 38.99269 43014 ft 470 kts 185°
2026-04-29 02:23 18.51736 38.98909 43018 ft 470 kts 185°
2026-04-29 02:23 18.45181 38.98547 43077 ft 470 kts 185°
2026-04-29 02:24 18.38666 38.98188 43135 ft 470 kts 185°
2026-04-29 02:25 18.28875 38.97649 43141 ft 470 kts 185°
2026-04-29 02:25 18.22353 38.97291 43123 ft 470 kts 185°
2026-04-29 02:26 18.15828 38.96936 43024 ft 470 kts 184°
2026-04-29 02:26 18.09296 38.96705 42990 ft 470 kts 183°
2026-04-29 02:27 18.02722 38.96479 42988 ft 471 kts 184°
2026-04-29 02:27 17.96181 38.96247 42987 ft 472 kts 183°
2026-04-29 02:28 17.89624 38.96013 42986 ft 472 kts 183°
2026-04-29 02:28 17.83073 38.95779 42985 ft 472 kts 183°
2026-04-29 02:29 17.76524 38.95544 42984 ft 472 kts 183°
2026-04-29 02:29 17.69975 38.95309 42983 ft 472 kts 183°
2026-04-29 02:30 17.63390 38.95074 43041 ft 471 kts 183°
2026-04-29 02:30 17.56845 38.94840 43044 ft 471 kts 183°
2026-04-29 02:31 17.50302 38.94607 43044 ft 471 kts 183°
2026-04-29 02:31 17.43765 38.94373 43043 ft 471 kts 182°
2026-04-29 02:32 17.37222 38.94116 43043 ft 472 kts 183°
2026-04-29 02:32 17.30674 38.93849 43042 ft 471 kts 183°
2026-04-29 02:33 17.24085 38.93581 43042 ft 471 kts 183°
2026-04-29 02:33 17.17542 38.93316 43042 ft 471 kts 182°
2026-04-29 02:34 17.11007 38.93052 43041 ft 471 kts 182°
2026-04-29 02:34 17.04471 38.92787 43041 ft 471 kts 182°
2026-04-29 02:35 16.97935 38.92523 43041 ft 471 kts 182°
2026-04-29 02:35 16.91403 38.92259 43041 ft 470 kts 182°
2026-04-29 02:36 16.84869 38.91995 42961 ft 471 kts 182°
2026-04-29 02:36 16.78288 38.91729 42913 ft 471 kts 182°
2026-04-29 02:37 16.71739 38.91466 42912 ft 472 kts 182°
2026-04-29 02:37 16.65194 38.91202 42913 ft 472 kts 182°
2026-04-29 02:38 16.58644 38.90938 42914 ft 471 kts 182°
2026-04-29 02:38 16.52100 38.90674 42916 ft 471 kts 182°
2026-04-29 02:39 16.45556 38.90412 42917 ft 471 kts 182°
2026-04-29 02:39 16.38967 38.90147 42918 ft 471 kts 182°
2026-04-29 02:40 16.32418 38.89884 42920 ft 471 kts 182°
2026-04-29 02:40 16.25872 38.89667 42921 ft 471 kts 181°
2026-04-29 02:41 16.19325 38.89465 42923 ft 471 kts 181°
2026-04-29 02:41 16.12778 38.89261 42924 ft 471 kts 181°
2026-04-29 02:42 16.06235 38.89056 42926 ft 471 kts 181°
2026-04-29 02:42 15.99686 38.88851 42928 ft 471 kts 181°
2026-04-29 02:43 15.93092 38.88643 42930 ft 472 kts 181°
2026-04-29 02:43 15.86536 38.88438 42931 ft 472 kts 181°
2026-04-29 02:44 15.79975 38.88233 42933 ft 472 kts 181°
2026-04-29 02:44 15.73417 38.88027 42935 ft 472 kts 181°
2026-04-29 02:45 15.66858 38.87822 42937 ft 472 kts 181°
2026-04-29 02:45 15.60303 38.87617 42939 ft 472 kts 181°
2026-04-29 02:46 15.53696 38.87410 42941 ft 472 kts 181°
2026-04-29 02:46 15.47133 38.87206 42943 ft 472 kts 181°
2026-04-29 02:47 15.40573 38.87001 42945 ft 472 kts 181°
2026-04-29 02:47 15.34011 38.86797 42948 ft 473 kts 181°
2026-04-29 02:48 15.27448 38.86596 42949 ft 473 kts 180°
2026-04-29 02:48 15.20884 38.86586 42952 ft 472 kts 179°
2026-04-29 02:49 15.14322 38.86603 42954 ft 472 kts 179°
2026-04-29 02:49 15.07732 38.86604 42957 ft 472 kts 179°